QPF
0.00 0.00 0.00 0.00 0.00 0.00 0.00 0.00 0.00 0.00 0.00 0.00 0.00 0.00 0.00 0.00 0.00 0.00 0.00 0.00 0.00 0.00 0.00 0.00 0.00 0.00 0.00 0.00 0.00 0.00 0.00 0.00 0.00 0.00 0.00 0.00 0.00 0.00 0.00 0.00 0.00 0.00 0.00 0.00 0.00 0.00 0.00 0.00 0.00 0.00 0.00 0.00 0.00 0.00 0.00 0.00 0.00 0.00 0.00 0.00 0.00 0.00 0.00 0.00 0.00 0.00 0.00 0.00 0.00
0.00 0.00 0.00 0.00 0.00 0.00 0.00 0.00 0.00 0.00 0.00 0.00 0.00 0.00 0.00 0.00 0.00 0.00 0.00 0.00 0.00 0.00 0.00 0.00 0.00 0.00 0.00 0.00 0.00 0.00 0.00 0.00 0.00 0.00 0.00 0.00 0.00 0.00 0.00 0.00 0.00 0.00 0.00 0.00 0.00 0.00 0.00 0.00 0.00 0.00 0.00 0.00 0.00 0.00 0.00 0.00 0.00 0.00 0.00 0.00 0.00 0.00 0.00 0.00 0.00 0.00 0.00 0.00 0.00
0.00 0.00 0.00 0.00 0.00 0.00 0.00 0.00 0.00 0.00 0.00 0.00 0.00 0.00 0.00 0.00 0.00 0.00 0.00 0.00 0.00 0.00 0.00 0.00 0.00 0.00 0.00 0.00 0.00 0.00 0.00 0.00 0.00 0.00 0.00 0.00 0.00 0.00 0.00 0.00 0.00 0.00 0.00 0.00 0.00 0.00 0.00 0.00 0.00 0.00 0.00 0.00 0.00 0.00 0.00 0.00 0.00 0.00 0.00 0.00 0.00 0.00 0.00 0.00 0.00 0.00 0.00 0.00 0.00
0.00 0.00 0.00 0.00 0.00 0.00 0.00 0.00 0.00 0.00 0.00 0.00 0.00 0.00 0.00 0.00 0.00 0.00 0.00 0.00 0.00 0.00 0.00 0.00 0.00 0.00 0.00 0.00 0.00 0.00 0.00 0.00 0.00 0.00 0.00 0.00 0.00 0.00 0.00 0.00 0.00 0.00 0.00 0.00 0.00 0.00 0.00 0.00 0.00 0.00 0.00 0.00 0.00 0.00 0.00 0.00 0.00 0.00 0.00 0.00 0.00 0.00 0.00 0.00 0.00 0.00 0.00 0.00 0.00
0.00 0.00 0.00 0.00 0.00 0.00 0.00 0.00 0.00 0.00 0.00 0.00 0.00 0.00 0.00 0.00 0.00 0.00 0.00 0.00 0.00 0.00 0.00 0.00 0.00 0.00 0.00 0.00 0.00 0.00 0.00 0.00 0.00 0.00 0.00 0.00 0.00 0.00 0.00 0.00 0.00 0.00 0.00 0.00 0.00 0.00 0.00 0.00 0.00 0.00 0.00 0.00 0.00 0.00 0.00 0.00 0.00 0.00 0.00 0.00 0.00 0.00 0.00 0.00 0.00 0.00 0.00 0.00 0.00
0.00 0.00 0.00 0.00 0.00 0.00 0.00 0.00 0.00 0.00 0.00 0.00 0.00 0.00 0.00 0.00 0.00 0.00 0.00 0.00 0.00 0.00 0.00 0.00 0.00 0.00 0.00 0.00 0.00 0.00 0.00 0.00 0.00 0.00 0.00 0.00 0.00 0.00 0.00 0.00 0.00 0.00 0.00 0.00 0.00 0.00 0.00 0.00 0.00 0.00 0.00 0.00 0.00 0.00 0.00 0.00 0.00 0.00 0.00 0.00 0.00 0.00 0.00 0.00 0.00 0.00 0.00 0.00 0.00
0.00 0.00 0.00 0.00 0.00 0.00 0.00 0.00 0.00 0.00 0.00 0.00 0.00 0.00 0.00 0.00 0.00 0.00 0.00 0.00 0.00 0.00 0.00 0.00 0.00 0.00 0.00 0.00 0.00 0.00 0.00 0.00 0.00 0.00 0.00 0.00 0.00 0.00 0.00 0.00 0.00 0.00 0.00 0.00 0.00 0.00 0.00 0.00 0.00 0.00 0.00 0.00 0.00 0.00 0.00 0.00 0.00 0.00 0.00 0.00 0.00 0.00 0.00 0.00 0.00 0.00 0.00 0.00 0.00
0.00 0.00 0.00 0.00 0.00 0.00 0.00 0.00 0.00 0.00 0.00 0.00 0.00 0.00 0.00 0.00 0.00 0.00 0.00 0.00 0.00 0.00 0.00 0.00 0.00 0.00 0.00 0.00 0.00 0.00 0.00 0.00 0.00 0.00 0.00 0.00 0.00 0.00 0.00 0.00 0.00 0.00 0.00 0.00 0.00 0.00 0.00 0.00 0.00 0.00 0.00 0.00 0.00 0.00 0.00 0.00 0.00 0.00 0.00 0.00 0.00 0.00 0.00 0.00 0.00 0.00 0.00 0.00 0.00
0.00 0.00 0.00 0.00 0.00 0.00 0.00 0.00 0.00 0.00 0.00 0.00 0.00 0.00 0.00 0.00 0.00 0.00 0.00 0.00 0.00 0.00 0.00 0.00 0.00 0.00 0.00 0.00 0.00 0.00 0.00 0.00 0.00 0.00 0.00 0.00 0.00 0.00 0.00 0.00 0.00 0.00 0.00 0.00 0.00 0.00 0.00 0.00 0.00 0.00 0.00 0.00 0.00 0.00 0.00 0.00 0.00 0.00 0.00 0.00 0.00 0.00 0.00 0.00 0.00 0.00 0.00 0.00 0.00
0.00 0.00 0.00 0.00 0.00 0.00 0.00 0.00 0.00 0.00 0.00 0.00 0.00 0.00 0.00 0.00 0.00 0.00 0.00 0.00 0.00 0.00 0.00 0.00 0.00 0.00 0.00 0.00 0.00 0.00 0.00 0.00 0.00 0.00 0.00 0.00 0.00 0.00 0.00 0.00 0.00 0.00 0.00 0.00 0.00 0.00 0.00 0.00 0.00 0.00 0.00 0.00 0.00 0.00 0.00 0.00 0.00 0.00 0.00 0.00 0.00 0.00 0.00 0.00 0.00 0.00 0.00 0.00 0.00
0.00 0.00 0.00 0.00 0.00 0.00 0.00 0.00 0.00 0.00 0.00 0.00 0.00 0.00 0.00 0.00 0.00 0.00 0.00 0.00 0.00 0.00 0.00 0.00 0.00 0.00 0.00 0.00 0.00 0.00 0.00 0.00 0.00 0.00 0.00 0.00 0.00 0.00 0.00 0.00 0.00 0.00 0.00 0.00 0.00 0.00 0.00 0.00 0.00 0.00 0.00 0.00 0.00 0.00 0.00 0.00 0.00 0.00 0.00 0.00 0.00 0.00 0.00 0.00 0.00 0.00 0.00 0.00 0.00
0.00 0.00 0.00 0.00 0.00 0.00 0.00 0.00 0.00 0.00 0.00 0.00 0.00 0.00 0.00 0.00 0.00 0.00 0.00 0.00 0.00 0.00 0.00 0.00 0.00 0.00 0.00 0.00 0.00 0.00 0.00 0.00 0.00 0.00 0.00 0.00 0.00 0.00 0.00 0.00 0.00 0.00 0.00 0.00 0.00 0.00 0.00 0.00 0.00 0.00 0.00 0.00 0.00 0.00 0.00 0.00 0.00 0.00 0.00 0.00 0.00 0.00 0.00 0.00 0.00 0.00 0.00 0.00 0.00
0.00 0.00 0.00 0.00 0.00 0.00 0.00 0.00 0.00 0.00 0.00 0.00 0.00 0.00 0.00 0.00 0.00 0.00 0.00 0.00 0.00 0.00 0.00 0.00 0.00 0.00 0.00 0.00 0.00 0.00 0.00 0.00 0.00 0.00 0.00 0.00 0.00 0.00 0.00 0.00 0.00 0.00 0.00 0.00 0.00 0.00 0.00 0.00 0.00 0.00 0.00 0.00 0.00 0.00 0.00 0.00 0.00 0.00 0.00 0.00 0.00 0.00 0.00 0.00 0.00 0.00 0.00 0.00 0.00
0.00 0.00 0.00 0.00 0.00 0.00 0.00 0.00 0.00 0.00 0.00 0.00 0.00 0.00 0.00 0.00 0.00 0.00 0.00 0.00 0.00 0.00 0.00 0.00 0.00 0.00 0.00 0.00 0.00 0.00 0.00 0.00 0.00 0.00 0.00 0.00 0.00 0.00 0.00 0.00 0.00 0.00 0.00 0.00 0.00 0.00 0.00 0.00 0.00 0.00 0.00 0.00 0.00 0.00 0.00 0.00 0.00 0.00 0.00 0.00 0.00 0.00 0.00 0.00 0.00 0.00 0.00 0.00 0.00
0.00 0.00 0.00 0.00 0.00 0.00 0.00 0.00 0.00 0.00 0.00 0.00 0.00 0.00 0.00 0.00 0.00 0.00 0.00 0.00 0.00 0.00 0.00 0.00 0.00 0.00 0.00 0.00 0.00 0.00 0.00 0.00 0.00 0.00 0.00 0.00 0.00 0.00 0.00 0.00 0.00 0.00 0.00 0.00 0.00 0.00 0.00 0.00 0.00 0.00 0.00 0.00 0.00 0.00 0.00 0.00 0.00 0.00 0.00 0.00 0.00 0.00 0.00 0.00 0.00 0.00 0.00 0.00 0.00
0.00 0.00 0.00 0.00 0.00 0.00 0.00 0.00 0.00 0.00 0.00 0.00 0.00 0.00 0.00 0.00 0.00 0.00 0.00 0.00 0.00 0.00 0.00 0.00 0.00 0.00 0.00 0.00 0.00 0.00 0.00 0.00 0.00 0.00 0.00 0.00 0.00 0.00 0.00 0.00 0.00 0.00 0.00 0.00 0.00 0.00 0.00 0.00 0.00 0.00 0.00 0.00 0.00 0.00 0.00 0.00 0.00 0.00 0.00 0.00 0.00 0.00 0.00 0.00 0.00 0.00 0.00 0.00 0.00
0.00 0.00 0.00 0.00 0.00 0.00 0.00 0.00 0.00 0.00 0.00 0.00 0.00 0.00 0.00 0.00 0.00 0.00 0.00 0.00 0.00 0.00 0.00 0.00 0.00 0.00 0.00 0.00 0.00 0.00 0.00 0.00 0.00 0.00 0.00 0.00 0.00 0.00 0.00 0.00 0.00 0.00 0.00 0.00 0.00 0.00 0.00 0.00 0.00 0.00 0.00 0.00 0.00 0.00 0.00 0.00 0.00 0.00 0.00 0.00 0.00 0.00 0.00 0.00 0.00 0.00 0.00 0.00 0.00
0.00 0.00 0.00 0.00 0.00 0.00 0.00 0.00 0.00 0.00 0.00 0.00 0.00 0.00 0.00 0.00 0.00 0.00 0.00 0.00 0.00 0.00 0.00 0.00 0.00 0.00 0.00 0.00 0.00 0.00 0.00 0.00 0.00 0.00 0.00 0.00 0.00 0.00 0.00 0.00 0.00 0.00 0.00 0.00 0.00 0.00 0.00 0.00 0.00 0.00 0.00 0.00 0.00 0.00 0.00 0.00 0.00 0.00 0.00 0.00 0.00 0.00 0.00 0.00 0.00 0.00 0.00 0.00 0.00
0.00 0.00 0.00 0.00 0.00 0.00 0.00 0.00 0.00 0.00 0.00 0.00 0.00 0.00 0.00 0.00 0.00 0.00 0.00 0.00 0.00 0.00 0.00 0.00 0.00 0.00 0.00 0.00 0.00 0.00 0.00 0.00 0.00 0.00 0.00 0.00 0.00 0.00 0.00 0.00 0.00 0.00 0.00 0.00 0.00 0.00 0.00 0.00 0.00 0.00 0.00 0.00 0.00 0.00 0.00 0.00 0.00 0.00 0.00 0.00 0.00 0.00 0.00 0.00 0.00 0.00 0.00 0.00 0.00
0.00 0.00 0.00 0.00 0.00 0.00 0.00 0.00 0.00 0.00 0.00 0.00 0.00 0.00 0.00 0.00 0.00 0.00 0.00 0.00 0.00 0.00 0.00 0.00 0.00 0.00 0.00 0.00 0.00 0.00 0.00 0.00 0.00 0.00 0.00 0.00 0.00 0.00 0.00 0.00 0.00 0.00 0.00 0.00 0.00 0.00 0.00 0.00 0.00 0.00 0.00 0.00 0.00 0.00 0.00 0.00 0.00 0.00 0.00 0.00 0.00 0.00 0.00 0.00 0.00 0.00 0.00 0.00 0.00
0.00 0.00 0.00 0.00 0.00 0.00 0.00 0.00 0.00 0.00 0.00 0.00 0.00 0.00 0.00 0.00 0.00 0.00 0.00 0.00 0.00 0.00 0.00 0.00 0.00 0.00 0.00 0.00 0.00 0.00 0.00 0.00 0.00 0.00 0.00 0.00 0.00 0.00 0.00 0.00 0.00 0.00 0.00 0.00 0.00 0.00 0.00 0.00 0.00 0.00 0.00 0.00 0.00 0.00 0.00 0.00 0.00 0.00 0.00 0.00 0.00 0.00 0.00 0.00 0.00 0.00 0.00 0.00 0.00
0.00 0.00 0.00 0.00 0.00 0.00 0.00 0.00 0.00 0.00 0.00 0.00 0.00 0.00 0.00 0.00 0.00 0.00 0.00 0.00 0.00 0.00 0.00 0.00 0.00 0.00 0.00 0.00 0.00 0.00 0.00 0.00 0.00 0.00 0.00 0.00 0.00 0.00 0.00 0.00 0.00 0.00 0.00 0.00 0.00 0.00 0.00 0.00 0.00 0.00 0.00 0.00 0.00 0.00 0.00 0.00 0.00 0.00 0.00 0.00 0.00 0.00 0.00 0.00 0.00 0.00 0.00 0.00 0.00
0.00 0.00 0.00 0.00 0.00 0.00 0.00 0.00 0.00 0.00 0.00 0.00 0.00 0.00 0.00 0.00 0.00 0.00 0.00 0.00 0.00 0.00 0.00 0.00 0.00 0.00 0.00 0.00 0.00 0.00 0.00 0.00 0.00 0.00 0.00 0.00 0.00 0.00 0.00 0.00 0.00 0.00 0.00 0.00 0.00 0.00 0.00 0.00 0.00 0.00 0.00 0.00 0.00 0.00 0.00 0.00 0.00 0.00 0.00 0.00 0.00 0.00 0.00 0.00 0.00 0.00 0.00 0.00 0.00
0.00 0.00 0.00 0.00 0.00 0.00 0.00 0.00 0.00 0.00 0.00 0.00 0.00 0.00 0.00 0.00 0.00 0.00 0.00 0.00 0.00 0.00 0.00 0.00 0.00 0.00 0.00 0.00 0.00 0.00 0.00 0.00 0.00 0.00 0.00 0.00 0.00 0.00 0.00 0.00 0.00 0.00 0.00 0.00 0.00 0.00 0.00 0.00 0.00 0.00 0.00 0.00 0.00 0.00 0.00 0.00 0.00 0.00 0.00 0.00 0.00 0.00 0.00 0.00 0.00 0.00 0.00 0.00 0.00
0.00 0.00 0.00 0.00 0.00 0.00 0.00 0.00 0.00 0.00 0.00 0.00 0.00 0.00 0.00 0.00 0.00 0.00 0.00 0.00 0.00 0.00 0.00 0.00 0.00 0.00 0.00 0.00 0.00 0.00 0.00 0.00 0.00 0.00 0.00 0.00 0.00 0.00 0.00 0.00 0.00 0.00 0.00 0.00 0.00 0.00 0.00 0.00 0.00 0.00 0.00 0.00 0.00 0.00 0.00 0.00 0.00 0.00 0.00 0.00 0.00 0.00 0.00 0.00 0.00 0.00 0.00 0.00 0.00
0.00 0.00 0.00 0.00 0.00 0.00 0.00 0.00 0.00 0.00 0.00 0.00 0.00 0.00 0.00 0.00 0.00 0.00 0.00 0.00 0.00 0.00 0.00 0.00 0.00 0.00 0.00 0.00 0.00 0.00 0.00 0.00 0.00 0.00 0.00 0.00 0.00 0.00 0.00 0.00 0.00 0.00 0.00 0.00 0.00 0.00 0.00 0.00 0.00 0.00 0.00 0.00 0.00 0.00 0.00 0.00 0.00 0.00 0.00 0.00 0.00 0.00 0.00 0.00 0.00 0.00 0.00 0.00 0.00
0.00 0.00 0.00 0.00 0.00 0.00 0.00 0.00 0.00 0.00 0.00 0.00 0.00 0.00 0.00 0.00 0.00 0.00 0.00 0.00 0.00 0.00 0.00 0.00 0.00 0.00 0.00 0.00 0.00 0.00 0.00 0.00 0.00 0.00 0.00 0.00 0.00 0.00 0.00 0.00 0.00 0.00 0.00 0.00 0.00 0.00 0.00 0.00 0.00 0.00 0.00 0.00 0.00 0.00 0.00 0.00 0.00 0.00 0.00 0.00 0.00 0.00 0.00 0.00 0.00 0.00 0.00 0.00 0.00
0.00 0.00 0.00 0.00 0.00 0.00 0.00 0.00 0.00 0.00 0.00 0.00 0.00 0.00 0.00 0.00 0.00 0.00 0.00 0.00 0.00 0.00 0.00 0.00 0.00 0.00 0.00 0.00 0.00 0.00 0.00 0.00 0.00 0.00 0.00 0.00 0.00 0.00 0.00 0.00 0.00 0.00 0.00 0.00 0.00 0.00 0.00 0.00 0.00 0.00 0.00 0.00 0.00 0.00 0.00 0.00 0.00 0.00 0.00 0.00 0.00 0.00 0.00 0.00 0.00 0.00 0.00 0.00 0.00
0.00 0.00 0.00 0.00 0.00 0.00 0.00 0.00 0.00 0.00 0.00 0.00 0.00 0.00 0.00 0.00 0.00 0.00 0.00 0.00 0.00 0.00 0.00 0.00 0.00 0.00 0.00 0.00 0.00 0.00 0.00 0.00 0.00 0.00 0.00 0.00 0.00 0.00 0.00 0.00 0.00 0.00 0.00 0.00 0.00 0.00 0.00 0.00 0.00 0.00 0.00 0.00 0.00 0.00 0.00 0.00 0.00 0.00 0.00 0.00 0.00 0.00 0.00 0.00 0.00 0.00 0.00 0.00 0.00
0.00 0.00 0.00 0.00 0.00 0.00 0.00 0.00 0.00 0.00 0.00 0.00 0.00 0.00 0.00 0.00 0.00 0.00 0.00 0.00 0.00 0.00 0.00 0.00 0.00 0.00 0.00 0.00 0.00 0.00 0.00 0.00 0.00 0.00 0.00 0.00 0.00 0.00 0.00 0.00 0.00 0.00 0.00 0.00 0.00 0.00 0.00 0.00 0.00 0.00 0.00 0.00 0.00 0.00 0.00 0.00 0.00 0.00 0.00 0.00 0.00 0.00 0.00 0.00 0.00 0.00 0.00 0.00 0.00
0.00 0.00 0.00 0.00 0.00 0.00 0.00 0.00 0.00 0.00 0.00 0.00 0.00 0.00 0.00 0.00 0.00 0.00 0.00 0.00 0.00 0.00 0.00 0.00 0.00 0.00 0.00 0.00 0.00 0.00 0.00 0.00 0.00 0.00 0.00 0.00 0.00 0.00 0.00 0.00 0.00 0.00 0.00 0.00 0.00 0.00 0.00 0.00 0.00 0.00 0.00 0.00 0.00 0.00 0.00 0.00 0.00 0.00 0.00 0.00 0.00 0.00 0.00 0.00 0.00 0.00 0.00 0.00 0.00
0.00 0.00 0.00 0.00 0.00 0.00 0.00 0.00 0.00 0.00 0.00 0.00 0.00 0.00 0.00 0.00 0.00 0.00 0.00 0.00 0.00 0.00 0.00 0.00 0.00 0.00 0.00 0.00 0.00 0.00 0.00 0.00 0.00 0.00 0.00 0.00 0.00 0.00 0.00 0.00 0.00 0.00 0.00 0.00 0.00 0.00 0.00 0.00 0.00 0.00 0.00 0.00 0.00 0.00 0.00 0.00 0.00 0.00 0.00 0.00 0.00 0.00 0.00 0.00 0.00 0.00 0.00 0.00 0.00
0.00 0.00 0.00 0.00 0.00 0.00 0.00 0.00 0.00 0.00 0.00 0.00 0.00 0.00 0.00 0.00 0.00 0.00 0.00 0.00 0.00 0.00 0.00 0.00 0.00 0.00 0.00 0.00 0.00 0.00 0.00 0.00 0.00 0.00 0.00 0.00 0.00 0.00 0.00 0.00 0.00 0.00 0.00 0.00 0.00 0.00 0.00 0.00 0.00 0.00 0.00 0.00 0.00 0.00 0.00 0.00 0.00 0.00 0.00 0.00 0.00 0.00 0.00 0.00 0.00 0.00 0.00 0.00 0.00
0.00 0.00 0.00 0.00 0.00 0.00 0.00 0.00 0.00 0.00 0.00 0.00 0.00 0.00 0.00 0.00 0.00 0.00 0.00 0.00 0.00 0.00 0.00 0.00 0.00 0.00 0.00 0.00 0.00 0.00 0.00 0.00 0.00 0.00 0.00 0.00 0.00 0.00 0.00 0.00 0.00 0.00 0.00 0.00 0.00 0.00 0.00 0.00 0.00 0.00 0.00 0.00 0.00 0.00 0.00 0.00 0.00 0.00 0.00 0.00 0.00 0.00 0.00 0.00 0.00 0.00 0.00 0.00 0.00
0.00 0.00 0.00 0.00 0.00 0.00 0.00 0.00 0.00 0.00 0.00 0.00 0.00 0.00 0.00 0.00 0.00 0.00 0.00 0.00 0.00 0.00 0.00 0.00 0.00 0.00 0.00 0.00 0.00 0.00 0.00 0.00 0.00 0.00 0.00 0.00 0.00 0.00 0.00 0.00 0.00 0.00 0.00 0.00 0.00 0.00 0.00 0.00 0.00 0.00 0.00 0.00 0.00 0.00 0.00 0.00 0.00 0.00 0.00 0.00 0.00 0.00 0.00 0.00 0.00 0.00 0.00 0.00 0.00
0.00 0.00 0.00 0.00 0.00 0.00 0.00 0.00 0.00 0.00 0.00 0.00 0.00 0.00 0.00 0.00 0.00 0.00 0.00 0.00 0.00 0.00 0.00 0.00 0.00 0.00 0.00 0.00 0.00 0.00 0.00 0.00 0.00 0.00 0.00 0.00 0.00 0.00 0.00 0.00 0.00 0.00 0.00 0.00 0.00 0.00 0.00 0.00 0.00 0.00 0.00 0.00 0.00 0.00 0.00 0.00 0.00 0.00 0.00 0.00 0.00 0.00 0.00 0.00 0.00 0.00 0.00 0.00 0.00
0.00 0.00 0.00 0.00 0.00 0.00 0.00 0.00 0.00 0.00 0.00 0.00 0.00 0.00 0.00 0.00 0.00 0.00 0.00 0.00 0.00 0.00 0.00 0.00 0.00 0.00 0.00 0.00 0.00 0.00 0.00 0.00 0.00 0.00 0.00 0.00 0.00 0.00 0.00 0.00 0.00 0.00 0.00 0.00 0.00 0.00 0.00 0.00 0.00 0.00 0.00 0.00 0.00 0.00 0.00 0.00 0.00 0.00 0.00 0.00 0.00 0.00 0.00 0.00 0.00 0.00 0.00 0.00 0.00
0.00 0.00 0.00 0.00 0.00 0.00 0.00 0.00 0.00 0.00 0.00 0.00 0.00 0.00 0.00 0.00 0.00 0.00 0.00 0.00 0.00 0.00 0.00 0.00 0.00 0.00 0.00 0.00 0.00 0.00 0.00 0.00 0.00 0.00 0.00 0.00 0.00 0.00 0.00 0.00 0.00 0.00 0.00 0.00 0.00 0.00 0.00 0.00 0.00 0.00 0.00 0.00 0.00 0.00 0.00 0.00 0.00 0.00 0.00 0.00 0.00 0.00 0.00 0.00 0.00 0.00 0.00 0.00 0.00
0.00 0.00 0.00 0.00 0.00 0.00 0.00 0.00 0.00 0.00 0.00 0.00 0.00 0.00 0.00 0.00 0.00 0.00 0.00 0.00 0.00 0.00 0.00 0.00 0.00 0.00 0.00 0.00 0.00 0.00 0.00 0.00 0.00 0.00 0.00 0.00 0.00 0.00 0.00 0.00 0.00 0.00 0.00 0.00 0.00 0.00 0.00 0.00 0.00 0.00 0.00 0.00 0.00 0.00 0.00 0.00 0.00 0.00 0.00 0.00 0.00 0.00 0.00 0.00 0.00 0.00 0.00 0.00 0.00
0.00 0.00 0.00 0.00 0.00 0.00 0.00 0.00 0.00 0.00 0.00 0.00 0.00 0.00 0.00 0.00 0.00 0.00 0.00 0.00 0.00 0.00 0.00 0.00 0.00 0.00 0.00 0.00 0.00 0.00 0.00 0.00 0.00 0.00 0.00 0.00 0.00 0.00 0.00 0.00 0.00 0.00 0.00 0.00 0.00 0.00 0.00 0.00 0.00 0.00 0.00 0.00 0.00 0.00 0.00 0.00 0.00 0.00 0.00 0.00 0.00 0.00 0.00 0.00 0.00 0.00 0.00 0.00 0.00
0.00 0.00 0.00 0.00 0.00 0.00 0.00 0.00 0.00 0.00 0.00 0.00 0.00 0.00 0.00 0.00 0.00 0.00 0.00 0.00 0.00 0.00 0.00 0.00 0.00 0.00 0.00 0.00 0.00 0.00 0.00 0.00 0.00 0.00 0.00 0.00 0.00 0.00 0.00 0.00 0.00 0.00 0.00 0.00 0.00 0.00 0.00 0.00 0.00 0.00 0.00 0.00 0.00 0.00 0.00 0.00 0.00 0.00 0.00 0.00 0.00 0.00 0.00 0.00 0.00 0.00 0.00 0.00 0.00
MSLP
1022.89 1022.97 1023.05 1023.09 1023.17 1023.33 1023.49 1023.61 1023.61 1023.73 1023.89 1024.13 1024.41 1024.61 1024.73 1024.85 1025.01 1025.17 1025.33 1025.41 1025.49 1025.61 1025.77 1025.89 1025.97 1026.05 1026.21 1026.33 1026.37 1026.41 1026.45 1026.49 1026.57 1026.61 1026.61 1026.65 1026.69 1026.73 1026.77 1026.81 1026.85 1026.85 1026.85 1026.89 1026.89 1026.93 1026.93 1026.93 1026.93 1026.89 1026.89 1026.85 1026.77 1026.77 1026.77 1026.73 1026.69 1026.65 1026.65 1026.61 1026.57 1026.49 1026.45 1026.45 1026.33 1026.29 1026.25 1026.25 1026.21
1022.89 1022.89 1022.97 1023.05 1023.13 1023.29 1023.45 1023.61 1023.69 1023.81 1023.89 1024.05 1024.17 1024.37 1024.53 1024.65 1024.81 1025.05 1025.21 1025.33 1025.41 1025.53 1025.69 1025.85 1025.93 1026.05 1026.17 1026.25 1026.33 1026.33 1026.37 1026.45 1026.49 1026.53 1026.57 1026.61 1026.61 1026.69 1026.77 1026.77 1026.81 1026.81 1026.81 1026.81 1026.85 1026.85 1026.85 1026.89 1026.89 1026.85 1026.81 1026.77 1026.77 1026.73 1026.65 1026.61 1026.65 1026.61 1026.57 1026.49 1026.45 1026.45 1026.41 1026.33 1026.25 1026.17 1026.17 1026.13 1026.09
1022.81 1022.89 1023.01 1023.05 1023.17 1023.33 1023.41 1023.57 1023.69 1023.85 1023.97 1024.09 1024.17 1024.33 1024.41 1024.53 1024.65 1024.89 1025.05 1025.21 1025.33 1025.45 1025.61 1025.77 1025.89 1025.97 1026.05 1026.17 1026.25 1026.33 1026.33 1026.33 1026.41 1026.45 1026.49 1026.57 1026.61 1026.65 1026.69 1026.73 1026.77 1026.77 1026.77 1026.77 1026.77 1026.77 1026.77 1026.77 1026.77 1026.69 1026.65 1026.69 1026.65 1026.61 1026.61 1026.61 1026.61 1026.57 1026.45 1026.41 1026.37 1026.37 1026.33 1026.21 1026.17 1026.13 1026.09 1026.05 1026.01
1022.77 1022.85 1022.93 1023.05 1023.09 1023.13 1023.17 1023.33 1023.53 1023.73 1023.89 1024.13 1024.25 1024.33 1024.41 1024.53 1024.61 1024.81 1024.97 1025.17 1025.33 1025.45 1025.57 1025.65 1025.77 1025.89 1026.01 1026.09 1026.17 1026.25 1026.29 1026.33 1026.33 1026.41 1026.45 1026.49 1026.53 1026.57 1026.61 1026.61 1026.65 1026.65 1026.65 1026.73 1026.69 1026.69 1026.73 1026.73 1026.65 1026.61 1026.61 1026.61 1026.53 1026.49 1026.49 1026.45 1026.49 1026.45 1026.41 1026.33 1026.33 1026.29 1026.17 1026.13 1026.05 1026.05 1026.05 1025.97 1025.89
1022.77 1022.77 1022.77 1022.85 1022.89 1022.89 1022.97 1023.13 1023.33 1023.61 1023.85 1024.05 1024.25 1024.37 1024.49 1024.61 1024.69 1024.85 1024.97 1025.17 1025.29 1025.37 1025.45 1025.61 1025.73 1025.81 1025.89 1026.01 1026.05 1026.13 1026.21 1026.29 1026.29 1026.33 1026.37 1026.45 1026.45 1026.53 1026.57 1026.61 1026.57 1026.57 1026.61 1026.61 1026.61 1026.61 1026.61 1026.61 1026.57 1026.53 1026.49 1026.49 1026.45 1026.41 1026.37 1026.37 1026.41 1026.37 1026.33 1026.33 1026.25 1026.17 1026.09 1026.05 1026.01 1025.97 1025.93 1025.89 1025.77
1022.61 1022.69 1022.77 1022.77 1022.81 1022.89 1023.01 1023.13 1023.29 1023.49 1023.73 1023.97 1024.13 1024.33 1024.45 1024.61 1024.69 1024.77 1024.89 1025.01 1025.13 1025.29 1025.41 1025.57 1025.65 1025.77 1025.89 1025.97 1026.01 1026.05 1026.13 1026.21 1026.21 1026.29 1026.33 1026.37 1026.37 1026.45 1026.45 1026.49 1026.49 1026.49 1026.49 1026.53 1026.53 1026.57 1026.57 1026.53 1026.45 1026.41 1026.41 1026.41 1026.33 1026.33 1026.33 1026.41 1026.33 1026.33 1026.25 1026.17 1026.09 1026.05 1026.05 1026.01 1025.89 1025.89 1025.85 1025.77 1025.69
1022.45 1022.61 1022.77 1022.81 1022.89 1022.97 1023.05 1023.21 1023.33 1023.53 1023.73 1023.89 1024.05 1024.17 1024.33 1024.45 1024.53 1024.61 1024.77 1024.89 1025.05 1025.25 1025.41 1025.49 1025.61 1025.69 1025.77 1025.81 1025.89 1025.97 1026.05 1026.13 1026.17 1026.25 1026.33 1026.33 1026.33 1026.33 1026.33 1026.33 1026.37 1026.37 1026.41 1026.45 1026.41 1026.45 1026.45 1026.37 1026.33 1026.29 1026.25 1026.21 1026.21 1026.21 1026.25 1026.33 1026.29 1026.21 1026.17 1026.05 1025.97 1025.93 1025.93 1025.85 1025.85 1025.81 1025.77 1025.65 1025.61
1022.45 1022.53 1022.65 1022.81 1022.89 1022.97 1023.05 1023.25 1023.41 1023.57 1023.73 1023.85 1023.93 1024.05 1024.17 1024.29 1024.41 1024.53 1024.69 1024.85 1025.01 1025.17 1025.29 1025.37 1025.49 1025.61 1025.61 1025.69 1025.77 1025.85 1025.93 1026.05 1026.13 1026.17 1026.17 1026.17 1026.21 1026.21 1026.21 1026.21 1026.25 1026.25 1026.29 1026.33 1026.33 1026.29 1026.29 1026.25 1026.21 1026.17 1026.17 1026.13 1026.13 1026.09 1026.13 1026.17 1026.21 1026.17 1026.05 1025.93 1025.89 1025.85 1025.81 1025.77 1025.77 1025.73 1025.69 1025.57 1025.53
1022.49 1022.61 1022.69 1022.81 1022.89 1023.01 1023.09 1023.21 1023.33 1023.45 1023.61 1023.73 1023.89 1023.93 1024.05 1024.17 1024.33 1024.45 1024.61 1024.77 1024.89 1025.05 1025.17 1025.33 1025.41 1025.49 1025.57 1025.65 1025.73 1025.77 1025.89 1025.93 1026.01 1026.05 1026.09 1026.09 1026.09 1026.09 1026.09 1026.09 1026.05 1026.05 1026.09 1026.17 1026.17 1026.17 1026.17 1026.13 1026.09 1026.09 1026.09 1026.05 1026.05 1026.05 1026.05 1026.09 1026.09 1026.05 1025.97 1025.89 1025.77 1025.73 1025.69 1025.65 1025.61 1025.61 1025.61 1025.49 1025.45
1022.41 1022.57 1022.69 1022.81 1022.93 1023.05 1023.17 1023.25 1023.33 1023.41 1023.53 1023.65 1023.85 1023.97 1024.05 1024.17 1024.25 1024.37 1024.49 1024.61 1024.77 1024.97 1025.13 1025.21 1025.33 1025.45 1025.53 1025.61 1025.65 1025.73 1025.81 1025.89 1025.89 1025.93 1025.97 1025.97 1025.93 1025.93 1025.93 1025.89 1025.89 1025.89 1025.89 1026.01 1026.05 1026.05 1026.05 1026.01 1025.97 1025.97 1025.97 1025.97 1025.97 1025.97 1025.97 1026.01 1026.01 1025.97 1025.89 1025.77 1025.69 1025.61 1025.53 1025.53 1025.49 1025.45 1025.45 1025.37 1025.29
1022.25 1022.41 1022.57 1022.73 1022.89 1023.05 1023.17 1023.29 1023.37 1023.45 1023.53 1023.69 1023.89 1024.01 1024.05 1024.17 1024.25 1024.37 1024.45 1024.57 1024.73 1024.89 1025.05 1025.13 1025.21 1025.33 1025.41 1025.49 1025.57 1025.65 1025.77 1025.81 1025.85 1025.89 1025.89 1025.85 1025.77 1025.77 1025.77 1025.77 1025.77 1025.77 1025.77 1025.85 1025.89 1025.93 1025.93 1025.89 1025.89 1025.85 1025.85 1025.89 1025.89 1025.89 1025.89 1025.89 1025.89 1025.85 1025.77 1025.69 1025.61 1025.53 1025.45 1025.37 1025.33 1025.33 1025.29 1025.17 1025.13
1022.17 1022.33 1022.49 1022.61 1022.85 1023.01 1023.13 1023.21 1023.37 1023.45 1023.61 1023.73 1023.89 1023.97 1024.09 1024.17 1024.29 1024.37 1024.45 1024.57 1024.69 1024.77 1024.89 1025.05 1025.13 1025.21 1025.33 1025.37 1025.49 1025.57 1025.61 1025.73 1025.77 1025.77 1025.73 1025.69 1025.69 1025.65 1025.65 1025.69 1025.69 1025.69 1025.69 1025.77 1025.81 1025.81 1025.81 1025.81 1025.77 1025.77 1025.77 1025.77 1025.77 1025.77 1025.77 1025.77 1025.77 1025.73 1025.65 1025.53 1025.45 1025.41 1025.33 1025.21 1025.17 1025.13 1025.05 1025.01 1024.97
1022.09 1022.29 1022.45 1022.65 1022.85 1022.93 1023.05 1023.17 1023.33 1023.45 1023.57 1023.69 1023.81 1023.93 1024.05 1024.17 1024.29 1024.33 1024.41 1024.49 1024.57 1024.69 1024.85 1025.01 1025.13 1025.17 1025.25 1025.33 1025.45 1025.49 1025.57 1025.61 1025.65 1025.61 1025.57 1025.53 1025.49 1025.53 1025.53 1025.53 1025.57 1025.61 1025.61 1025.65 1025.73 1025.73 1025.73 1025.73 1025.69 1025.69 1025.69 1025.65 1025.61 1025.61 1025.65 1025.65 1025.65 1025.61 1025.49 1025.41 1025.33 1025.25 1025.17 1025.05 1025.05 1024.97 1024.93 1024.89 1024.81
1022.05 1022.21 1022.41 1022.61 1022.77 1022.89 1022.97 1023.13 1023.29 1023.41 1023.49 1023.61 1023.73 1023.89 1024.05 1024.17 1024.29 1024.33 1024.33 1024.41 1024.53 1024.65 1024.81 1024.97 1025.09 1025.17 1025.21 1025.29 1025.33 1025.41 1025.45 1025.49 1025.49 1025.45 1025.45 1025.41 1025.41 1025.41 1025.45 1025.45 1025.45 1025.49 1025.53 1025.57 1025.61 1025.61 1025.61 1025.61 1025.61 1025.61 1025.57 1025.57 1025.53 1025.49 1025.49 1025.53 1025.49 1025.45 1025.37 1025.29 1025.17 1025.05 1024.97 1024.89 1024.85 1024.81 1024.81 1024.73 1024.61
1022.05 1022.21 1022.41 1022.57 1022.73 1022.81 1022.89 1023.05 1023.17 1023.33 1023.45 1023.61 1023.73 1023.89 1024.01 1024.13 1024.25 1024.33 1024.33 1024.41 1024.53 1024.69 1024.81 1024.93 1025.05 1025.09 1025.17 1025.25 1025.29 1025.33 1025.37 1025.41 1025.37 1025.33 1025.29 1025.25 1025.29 1025.33 1025.33 1025.37 1025.37 1025.41 1025.41 1025.45 1025.49 1025.49 1025.49 1025.45 1025.45 1025.49 1025.49 1025.45 1025.41 1025.37 1025.37 1025.37 1025.37 1025.33 1025.25 1025.17 1025.05 1024.97 1024.85 1024.77 1024.73 1024.65 1024.61 1024.53 1024.41
1022.05 1022.21 1022.37 1022.49 1022.61 1022.77 1022.85 1023.01 1023.13 1023.29 1023.41 1023.53 1023.73 1023.89 1024.01 1024.09 1024.21 1024.33 1024.37 1024.45 1024.57 1024.73 1024.85 1024.89 1024.97 1025.05 1025.13 1025.17 1025.25 1025.29 1025.33 1025.29 1025.21 1025.17 1025.13 1025.13 1025.17 1025.17 1025.21 1025.25 1025.25 1025.25 1025.29 1025.33 1025.33 1025.33 1025.33 1025.33 1025.37 1025.37 1025.37 1025.33 1025.33 1025.29 1025.25 1025.21 1025.17 1025.17 1025.09 1025.01 1024.89 1024.85 1024.73 1024.61 1024.53 1024.45 1024.41 1024.33 1024.21
1022.01 1022.17 1022.33 1022.41 1022.53 1022.65 1022.77 1022.97 1023.13 1023.29 1023.41 1023.53 1023.73 1023.89 1023.97 1024.09 1024.17 1024.29 1024.33 1024.41 1024.53 1024.69 1024.77 1024.85 1024.89 1024.93 1025.01 1025.05 1025.13 1025.17 1025.13 1025.05 1025.05 1025.01 1025.01 1025.05 1025.05 1025.05 1025.09 1025.13 1025.13 1025.13 1025.17 1025.21 1025.21 1025.21 1025.17 1025.17 1025.21 1025.25 1025.25 1025.25 1025.25 1025.17 1025.13 1025.09 1025.05 1024.97 1024.89 1024.77 1024.73 1024.61 1024.53 1024.45 1024.33 1024.25 1024.17 1024.09 1024.01
1021.93 1022.09 1022.21 1022.33 1022.45 1022.61 1022.77 1022.93 1023.13 1023.29 1023.41 1023.57 1023.73 1023.85 1023.93 1024.05 1024.17 1024.21 1024.29 1024.33 1024.45 1024.57 1024.65 1024.77 1024.81 1024.85 1024.89 1024.89 1024.89 1024.89 1024.89 1024.85 1024.85 1024.85 1024.89 1024.89 1024.93 1024.97 1025.01 1025.01 1024.97 1025.01 1025.05 1025.09 1025.05 1025.05 1025.05 1025.01 1025.05 1025.05 1025.09 1025.13 1025.13 1025.05 1025.01 1024.93 1024.89 1024.77 1024.65 1024.57 1024.49 1024.41 1024.33 1024.25 1024.17 1024.05 1024.01 1023.89 1023.77
1021.85 1022.01 1022.17 1022.25 1022.37 1022.49 1022.69 1022.89 1023.05 1023.25 1023.41 1023.53 1023.69 1023.81 1023.93 1024.05 1024.09 1024.17 1024.25 1024.33 1024.37 1024.41 1024.45 1024.61 1024.69 1024.77 1024.73 1024.73 1024.77 1024.73 1024.69 1024.65 1024.69 1024.73 1024.77 1024.81 1024.85 1024.89 1024.89 1024.85 1024.85 1024.89 1024.93 1024.93 1024.93 1024.89 1024.89 1024.89 1024.89 1024.89 1024.93 1024.89 1024.89 1024.89 1024.81 1024.77 1024.69 1024.57 1024.45 1024.33 1024.25 1024.17 1024.09 1024.01 1023.97 1023.89 1023.77 1023.69 1023.61
1021.69 1021.89 1022.05 1022.17 1022.33 1022.45 1022.65 1022.81 1023.05 1023.21 1023.37 1023.53 1023.65 1023.81 1023.89 1024.01 1024.09 1024.13 1024.17 1024.21 1024.25 1024.33 1024.33 1024.41 1024.45 1024.53 1024.57 1024.57 1024.57 1024.57 1024.53 1024.53 1024.61 1024.61 1024.65 1024.73 1024.77 1024.77 1024.77 1024.73 1024.73 1024.73 1024.77 1024.81 1024.81 1024.77 1024.77 1024.77 1024.73 1024.77 1024.77 1024.77 1024.69 1024.65 1024.61 1024.49 1024.41 1024.33 1024.21 1024.13 1024.05 1023.89 1023.81 1023.73 1023.69 1023.61 1023.57 1023.49 1023.41
1021.57 1021.73 1021.89 1022.05 1022.25 1022.45 1022.69 1022.85 1023.05 1023.17 1023.37 1023.53 1023.65 1023.73 1023.89 1023.93 1024.01 1024.05 1024.05 1024.05 1024.13 1024.21 1024.29 1024.29 1024.29 1024.29 1024.33 1024.37 1024.37 1024.41 1024.45 1024.45 1024.53 1024.57 1024.57 1024.61 1024.61 1024.61 1024.57 1024.61 1024.61 1024.61 1024.61 1024.65 1024.65 1024.61 1024.61 1024.57 1024.57 1024.57 1024.57 1024.57 1024.53 1024.45 1024.33 1024.25 1024.13 1024.05 1023.93 1023.85 1023.73 1023.65 1023.57 1023.45 1023.45 1023.37 1023.33 1023.21 1023.17
1021.49 1021.65 1021.85 1022.09 1022.33 1022.49 1022.73 1022.89 1023.05 1023.21 1023.33 1023.49 1023.61 1023.69 1023.77 1023.89 1023.89 1023.89 1023.93 1023.97 1024.05 1024.13 1024.17 1024.13 1024.13 1024.13 1024.13 1024.17 1024.21 1024.25 1024.33 1024.37 1024.45 1024.45 1024.45 1024.45 1024.45 1024.45 1024.45 1024.45 1024.49 1024.45 1024.45 1024.45 1024.45 1024.45 1024.45 1024.45 1024.41 1024.41 1024.41 1024.41 1024.33 1024.21 1024.13 1024.01 1023.89 1023.73 1023.61 1023.53 1023.45 1023.33 1023.29 1023.21 1023.17 1023.13 1023.05 1023.01 1022.93
1021.49 1021.73 1021.93 1022.21 1022.37 1022.57 1022.73 1022.93 1023.09 1023.21 1023.33 1023.45 1023.61 1023.65 1023.73 1023.77 1023.81 1023.85 1023.93 1024.01 1024.01 1024.05 1024.05 1024.01 1024.01 1024.01 1024.05 1024.05 1024.09 1024.17 1024.25 1024.33 1024.33 1024.37 1024.37 1024.37 1024.33 1024.33 1024.33 1024.37 1024.37 1024.37 1024.33 1024.25 1024.29 1024.33 1024.33 1024.29 1024.25 1024.21 1024.21 1024.17 1024.05 1023.93 1023.85 1023.73 1023.61 1023.49 1023.33 1023.25 1023.17 1023.05 1023.01 1022.97 1022.89 1022.89 1022.85 1022.77 1022.77
1021.53 1021.81 1022.05 1022.29 1022.45 1022.61 1022.77 1022.89 1023.05 1023.17 1023.33 1023.37 1023.49 1023.57 1023.61 1023.61 1023.73 1023.81 1023.89 1023.89 1023.89 1023.89 1023.89 1023.89 1023.89 1023.93 1023.97 1024.05 1024.05 1024.13 1024.17 1024.21 1024.25 1024.21 1024.21 1024.21 1024.21 1024.21 1024.21 1024.21 1024.17 1024.17 1024.13 1024.09 1024.09 1024.13 1024.13 1024.01 1023.93 1023.89 1023.85 1023.81 1023.73 1023.61 1023.49 1023.41 1023.33 1023.17 1023.09 1022.97 1022.89 1022.81 1022.77 1022.73 1022.69 1022.65 1022.61 1022.57 1022.53
1021.65 1021.89 1022.13 1022.33 1022.45 1022.61 1022.73 1022.85 1023.01 1023.09 1023.17 1023.25 1023.37 1023.45 1023.53 1023.57 1023.61 1023.73 1023.77 1023.77 1023.81 1023.81 1023.81 1023.85 1023.89 1023.89 1023.93 1024.01 1024.05 1024.09 1024.09 1024.09 1024.09 1024.05 1024.05 1024.05 1024.05 1024.05 1024.05 1024.05 1024.01 1023.97 1023.89 1023.89 1023.81 1023.73 1023.65 1023.53 1023.49 1023.45 1023.41 1023.33 1023.29 1023.17 1023.13 1023.05 1022.97 1022.89 1022.77 1022.73 1022.65 1022.57 1022.49 1022.41 1022.37 1022.37 1022.37 1022.33 1022.33
1021.73 1021.93 1022.13 1022.29 1022.41 1022.53 1022.65 1022.77 1022.89 1023.01 1023.09 1023.17 1023.29 1023.37 1023.45 1023.49 1023.57 1023.61 1023.65 1023.69 1023.69 1023.73 1023.73 1023.73 1023.77 1023.81 1023.89 1023.89 1023.97 1024.01 1024.01 1024.01 1023.97 1023.93 1023.89 1023.85 1023.85 1023.85 1023.81 1023.81 1023.73 1023.73 1023.73 1023.69 1023.57 1023.45 1023.33 1023.21 1023.09 1023.01 1022.97 1022.97 1022.89 1022.85 1022.77 1022.69 1022.65 1022.61 1022.53 1022.45 1022.41 1022.37 1022.33 1022.17 1022.13 1022.09 1022.09 1022.09 1022.05
1021.77 1021.97 1022.13 1022.25 1022.37 1022.49 1022.61 1022.77 1022.85 1022.97 1023.05 1023.17 1023.17 1023.29 1023.37 1023.45 1023.45 1023.49 1023.53 1023.57 1023.61 1023.61 1023.61 1023.65 1023.69 1023.69 1023.73 1023.77 1023.85 1023.85 1023.85 1023.81 1023.77 1023.77 1023.77 1023.73 1023.73 1023.69 1023.65 1023.61 1023.57 1023.57 1023.57 1023.45 1023.33 1023.17 1023.05 1022.93 1022.85 1022.73 1022.65 1022.65 1022.61 1022.53 1022.45 1022.33 1022.33 1022.33 1022.29 1022.21 1022.17 1022.13 1022.09 1022.05 1021.97 1021.89 1021.85 1021.81 1021.81
1021.77 1021.93 1022.13 1022.29 1022.37 1022.49 1022.61 1022.77 1022.89 1022.93 1022.97 1023.05 1023.17 1023.21 1023.33 1023.37 1023.41 1023.45 1023.45 1023.45 1023.49 1023.49 1023.53 1023.57 1023.61 1023.61 1023.61 1023.69 1023.69 1023.65 1023.61 1023.61 1023.61 1023.61 1023.61 1023.61 1023.61 1023.61 1023.49 1023.41 1023.33 1023.33 1023.25 1023.13 1023.05 1022.89 1022.77 1022.69 1022.61 1022.49 1022.41 1022.37 1022.29 1022.21 1022.17 1022.13 1022.05 1022.05 1022.05 1022.01 1021.97 1021.89 1021.89 1021.81 1021.73 1021.69 1021.61 1021.53 1021.49
1021.73 1021.89 1022.09 1022.25 1022.33 1022.49 1022.61 1022.77 1022.77 1022.85 1022.93 1023.05 1023.13 1023.17 1023.25 1023.33 1023.33 1023.33 1023.33 1023.37 1023.41 1023.37 1023.37 1023.41 1023.45 1023.49 1023.53 1023.53 1023.45 1023.45 1023.49 1023.45 1023.45 1023.45 1023.49 1023.49 1023.45 1023.41 1023.33 1023.21 1023.17 1023.05 1022.97 1022.89 1022.77 1022.65 1022.57 1022.45 1022.37 1022.29 1022.21 1022.17 1022.05 1021.97 1021.89 1021.81 1021.77 1021.73 1021.73 1021.73 1021.65 1021.61 1021.61 1021.61 1021.53 1021.45 1021.41 1021.33 1021.25
1021.69 1021.89 1022.05 1022.17 1022.33 1022.45 1022.61 1022.69 1022.73 1022.81 1022.89 1023.01 1023.09 1023.17 1023.17 1023.25 1023.25 1023.25 1023.25 1023.25 1023.25 1023.21 1023.21 1023.29 1023.33 1023.33 1023.33 1023.33 1023.33 1023.33 1023.33 1023.29 1023.29 1023.33 1023.33 1023.33 1023.25 1023.17 1023.05 1022.97 1022.89 1022.85 1022.73 1022.61 1022.53 1022.45 1022.33 1022.25 1022.17 1022.05 1021.97 1021.89 1021.81 1021.73 1021.61 1021.57 1021.57 1021.53 1021.49 1021.45 1021.45 1021.45 1021.41 1021.33 1021.33 1021.29 1021.21 1021.13 1021.05
1021.73 1021.89 1022.01 1022.17 1022.33 1022.45 1022.53 1022.61 1022.73 1022.81 1022.89 1022.97 1023.05 1023.05 1023.09 1023.13 1023.13 1023.09 1023.09 1023.09 1023.09 1023.05 1023.05 1023.17 1023.25 1023.25 1023.17 1023.17 1023.17 1023.17 1023.17 1023.09 1023.13 1023.13 1023.13 1023.09 1023.01 1022.89 1022.77 1022.73 1022.69 1022.65 1022.57 1022.45 1022.33 1022.25 1022.17 1022.05 1021.97 1021.89 1021.73 1021.65 1021.61 1021.49 1021.37 1021.33 1021.29 1021.29 1021.29 1021.21 1021.17 1021.17 1021.17 1021.17 1021.13 1021.05 1021.01 1020.93 1020.89
1021.73 1021.89 1022.01 1022.17 1022.29 1022.41 1022.53 1022.61 1022.73 1022.81 1022.89 1022.89 1022.97 1023.01 1023.01 1022.97 1022.97 1022.97 1022.97 1023.01 1023.01 1023.05 1023.05 1023.09 1023.13 1023.09 1023.05 1023.05 1023.05 1023.05 1023.01 1022.97 1022.89 1022.89 1022.85 1022.85 1022.77 1022.69 1022.61 1022.53 1022.45 1022.41 1022.33 1022.29 1022.17 1022.05 1021.97 1021.85 1021.73 1021.61 1021.49 1021.45 1021.33 1021.25 1021.17 1021.13 1021.09 1021.05 1021.05 1021.05 1021.01 1020.97 1020.93 1020.89 1020.85 1020.81 1020.77 1020.73 1020.65
1021.77 1021.89 1022.05 1022.17 1022.29 1022.45 1022.57 1022.65 1022.73 1022.77 1022.81 1022.85 1022.89 1022.89 1022.89 1022.89 1022.89 1022.89 1022.93 1022.93 1022.93 1022.97 1022.97 1022.97 1022.93 1022.89 1022.89 1022.89 1022.85 1022.81 1022.77 1022.73 1022.69 1022.61 1022.57 1022.57 1022.53 1022.49 1022.45 1022.33 1022.25 1022.17 1022.09 1022.01 1021.89 1021.81 1021.73 1021.61 1021.49 1021.37 1021.33 1021.21 1021.13 1021.01 1020.93 1020.89 1020.89 1020.89 1020.81 1020.77 1020.77 1020.73 1020.69 1020.65 1020.61 1020.57 1020.49 1020.45 1020.41
1021.81 1021.93 1022.05 1022.17 1022.25 1022.41 1022.53 1022.61 1022.69 1022.77 1022.77 1022.77 1022.81 1022.81 1022.77 1022.81 1022.81 1022.81 1022.81 1022.81 1022.81 1022.81 1022.77 1022.77 1022.77 1022.73 1022.65 1022.65 1022.61 1022.61 1022.53 1022.45 1022.41 1022.37 1022.37 1022.37 1022.37 1022.33 1022.29 1022.17 1022.05 1021.93 1021.85 1021.73 1021.65 1021.57 1021.45 1021.37 1021.29 1021.17 1021.09 1021.01 1020.89 1020.77 1020.73 1020.69 1020.69 1020.61 1020.61 1020.53 1020.49 1020.45 1020.45 1020.41 1020.37 1020.33 1020.33 1020.29 1020.21
1021.81 1021.93 1022.05 1022.17 1022.29 1022.37 1022.45 1022.57 1022.61 1022.69 1022.69 1022.69 1022.69 1022.69 1022.73 1022.69 1022.69 1022.65 1022.61 1022.61 1022.65 1022.69 1022.69 1022.65 1022.61 1022.61 1022.57 1022.53 1022.49 1022.45 1022.41 1022.33 1022.25 1022.17 1022.17 1022.17 1022.17 1022.17 1022.09 1021.93 1021.77 1021.69 1021.61 1021.57 1021.45 1021.37 1021.29 1021.17 1021.05 1020.97 1020.89 1020.77 1020.65 1020.57 1020.53 1020.49 1020.45 1020.41 1020.33 1020.29 1020.21 1020.17 1020.17 1020.17 1020.13 1020.09 1020.09 1020.05 1019.97
1021.73 1021.89 1022.01 1022.13 1022.25 1022.33 1022.45 1022.49 1022.53 1022.61 1022.61 1022.57 1022.53 1022.57 1022.57 1022.57 1022.53 1022.49 1022.45 1022.45 1022.49 1022.53 1022.53 1022.53 1022.53 1022.49 1022.45 1022.37 1022.33 1022.29 1022.17 1022.17 1022.05 1022.01 1021.97 1022.01 1022.01 1021.97 1021.89 1021.73 1021.57 1021.45 1021.41 1021.37 1021.29 1021.17 1021.09 1020.97 1020.89 1020.77 1020.69 1020.61 1020.45 1020.37 1020.33 1020.33 1020.25 1020.17 1020.09 1020.05 1019.93 1019.89 1019.85 1019.85 1019.85 1019.81 1019.81 1019.77 1019.73
1021.73 1021.81 1021.89 1022.05 1022.17 1022.29 1022.33 1022.37 1022.45 1022.45 1022.45 1022.41 1022.37 1022.37 1022.37 1022.37 1022.37 1022.37 1022.41 1022.41 1022.41 1022.41 1022.37 1022.33 1022.33 1022.29 1022.21 1022.13 1022.05 1021.97 1021.89 1021.93 1021.89 1021.89 1021.81 1021.77 1021.77 1021.73 1021.61 1021.49 1021.37 1021.25 1021.17 1021.17 1021.09 1021.01 1020.89 1020.77 1020.69 1020.57 1020.49 1020.37 1020.25 1020.17 1020.09 1020.05 1020.01 1019.93 1019.85 1019.77 1019.65 1019.61 1019.61 1019.61 1019.57 1019.53 1019.49 1019.53 1019.49
1021.73 1021.77 1021.85 1021.97 1022.05 1022.13 1022.17 1022.25 1022.33 1022.33 1022.29 1022.21 1022.21 1022.21 1022.25 1022.25 1022.25 1022.25 1022.25 1022.21 1022.21 1022.21 1022.17 1022.17 1022.09 1022.05 1021.93 1021.89 1021.81 1021.73 1021.73 1021.77 1021.77 1021.73 1021.69 1021.61 1021.57 1021.53 1021.45 1021.33 1021.17 1021.05 1020.97 1020.93 1020.89 1020.77 1020.69 1020.57 1020.45 1020.33 1020.25 1020.17 1020.01 1019.89 1019.85 1019.81 1019.73 1019.65 1019.57 1019.45 1019.33 1019.29 1019.29 1019.29 1019.21 1019.17 1019.17 1019.17 1019.13
1021.69 1021.73 1021.77 1021.85 1021.89 1021.97 1022.05 1022.13 1022.17 1022.13 1022.09 1022.05 1022.05 1022.09 1022.13 1022.17 1022.09 1022.05 1022.05 1021.97 1021.97 1021.97 1021.93 1021.89 1021.85 1021.73 1021.65 1021.65 1021.65 1021.61 1021.61 1021.57 1021.61 1021.57 1021.49 1021.45 1021.33 1021.33 1021.25 1021.13 1020.93 1020.77 1020.69 1020.65 1020.61 1020.53 1020.45 1020.33 1020.17 1020.09 1020.05 1019.93 1019.81 1019.69 1019.61 1019.57 1019.45 1019.37 1019.29 1019.17 1019.09 1019.01 1018.97 1018.97 1018.97 1018.89 1018.81 1018.81 1018.77
1021.61 1021.69 1021.73 1021.77 1021.81 1021.89 1021.93 1021.97 1021.97 1021.93 1021.89 1021.93 1021.93 1021.93 1021.93 1021.89 1021.89 1021.85 1021.85 1021.81 1021.81 1021.77 1021.73 1021.69 1021.61 1021.53 1021.49 1021.53 1021.53 1021.49 1021.45 1021.33 1021.37 1021.33 1021.33 1021.25 1021.17 1021.09 1021.05 1020.89 1020.73 1020.53 1020.41 1020.33 1020.33 1020.29 1020.17 1020.05 1019.97 1019.89 1019.77 1019.73 1019.61 1019.49 1019.41 1019.33 1019.25 1019.13 1019.05 1018.93 1018.85 1018.73 1018.61 1018.61 1018.61 1018.57 1018.49 1018.45 1018.41
1021.61 1021.65 1021.69 1021.73 1021.73 1021.77 1021.81 1021.81 1021.77 1021.77 1021.81 1021.85 1021.81 1021.77 1021.73 1021.73 1021.73 1021.73 1021.73 1021.69 1021.69 1021.65 1021.61 1021.53 1021.45 1021.41 1021.41 1021.41 1021.37 1021.33 1021.25 1021.13 1021.05 1021.05 1021.05 1021.05 1020.97 1020.89 1020.77 1020.65 1020.49 1020.33 1020.17 1020.13 1020.09 1020.05 1019.97 1019.89 1019.73 1019.65 1019.57 1019.45 1019.33 1019.25 1019.17 1019.13 1019.01 1018.85 1018.69 1018.61 1018.57 1018.49 1018.37 1018.25 1018.21 1018.17 1018.17 1018.13 1018.05
Thickness
5592 5590 5589 5588 5586 5584 5583 5581 5580 5578 5575 5573 5569 5567 5565 5563 5561 5558 5555 5554 5552 5550 5547 5545 5543 5542 5539 5538 5536 5534 5533 5531 5529 5527 5525 5524 5522 5521 5519 5518 5516 5515 5514 5512 5510 5509 5507 5505 5504 5503 5501 5500 5499 5498 5496 5495 5494 5492 5491 5489 5488 5487 5485 5484 5483 5482 5480 5478 5477
5589 5588 5587 5586 5584 5582 5580 5578 5576 5575 5573 5570 5569 5566 5564 5562 5559 5556 5554 5552 5550 5548 5546 5543 5541 5539 5537 5535 5533 5532 5530 5528 5527 5525 5523 5521 5519 5518 5516 5515 5513 5512 5511 5509 5507 5506 5504 5503 5501 5500 5498 5497 5495 5494 5493 5492 5490 5488 5488 5486 5485 5483 5482 5480 5480 5479 5477 5475 5473
5587 5585 5584 5583 5581 5580 5578 5575 5573 5572 5570 5568 5566 5564 5562 5560 5558 5555 5552 5550 5548 5546 5543 5541 5539 5537 5535 5533 5531 5529 5527 5526 5524 5522 5520 5519 5517 5515 5514 5512 5511 5509 5508 5506 5504 5503 5501 5500 5498 5497 5495 5493 5492 5491 5490 5489 5487 5485 5484 5483 5481 5480 5478 5478 5476 5475 5473 5471 5470
5585 5583 5582 5580 5579 5578 5577 5575 5573 5569 5567 5565 5563 5561 5559 5557 5555 5553 5550 5547 5545 5543 5541 5539 5536 5535 5532 5530 5528 5527 5525 5523 5521 5519 5517 5516 5514 5512 5511 5509 5508 5506 5504 5503 5502 5500 5498 5496 5495 5494 5492 5491 5489 5488 5487 5486 5484 5482 5480 5479 5478 5476 5475 5474 5472 5470 5469 5467 5466
5583 5582 5580 5579 5578 5577 5575 5573 5571 5568 5565 5562 5560 5558 5555 5554 5552 5550 5547 5545 5542 5541 5538 5537 5534 5532 5530 5528 5526 5524 5522 5520 5518 5516 5514 5513 5511 5509 5508 5506 5505 5503 5502 5500 5498 5497 5495 5493 5492 5491 5490 5488 5486 5485 5484 5482 5481 5479 5477 5476 5474 5473 5471 5470 5468 5467 5466 5464 5462
5581 5579 5578 5577 5575 5575 5573 5571 5569 5566 5563 5560 5558 5555 5553 5551 5549 5547 5545 5543 5540 5539 5536 5534 5532 5529 5527 5525 5524 5521 5519 5517 5515 5514 5512 5509 5508 5507 5505 5503 5502 5500 5498 5497 5496 5494 5493 5491 5489 5488 5486 5485 5484 5482 5481 5478 5477 5476 5474 5473 5471 5469 5468 5466 5465 5463 5462 5460 5459
5579 5577 5576 5574 5572 5571 5569 5567 5565 5563 5560 5558 5556 5553 5551 5548 5547 5545 5543 5541 5538 5535 5533 5531 5529 5527 5525 5522 5521 5519 5516 5515 5512 5511 5509 5507 5505 5504 5502 5500 5499 5497 5496 5494 5493 5491 5489 5488 5486 5485 5484 5482 5481 5479 5477 5475 5474 5472 5470 5469 5468 5466 5464 5463 5461 5460 5458 5457 5455
5576 5575 5573 5571 5570 5568 5566 5564 5562 5560 5557 5555 5554 5551 5549 5547 5545 5543 5540 5538 5535 5533 5531 5528 5526 5524 5522 5520 5518 5516 5514 5511 5509 5507 5506 5504 5503 5501 5499 5497 5496 5494 5493 5492 5490 5488 5487 5485 5484 5482 5481 5479 5478 5476 5474 5472 5470 5468 5467 5466 5465 5463 5461 5459 5457 5456 5454 5453 5451
5573 5571 5570 5568 5566 5564 5563 5561 5559 5557 5555 5552 5551 5549 5547 5544 5542 5540 5538 5535 5533 5531 5528 5526 5524 5522 5519 5517 5515 5513 5511 5509 5507 5504 5503 5501 5500 5498 5497 5495 5494 5492 5490 5489 5487 5485 5483 5482 5481 5479 5477 5476 5474 5473 5471 5468 5467 5465 5464 5463 5461 5459 5458 5455 5454 5452 5451 5449 5448
5571 5569 5567 5565 5563 5561 5559 5558 5556 5554 5552 5550 5547 5546 5544 5542 5540 5537 5535 5533 5530 5528 5525 5523 5520 5518 5516 5514 5512 5509 5507 5505 5504 5502 5500 5499 5497 5495 5494 5492 5491 5489 5488 5486 5484 5482 5480 5479 5478 5476 5474 5473 5471 5469 5467 5465 5464 5461 5460 5459 5458 5456 5454 5452 5450 5448 5447 5445 5444
5569 5567 5565 5563 5561 5558 5556 5555 5552 5551 5549 5547 5544 5542 5540 5538 5536 5535 5532 5530 5527 5524 5522 5520 5518 5515 5513 5511 5509 5507 5505 5503 5501 5499 5497 5496 5494 5493 5491 5490 5488 5487 5485 5483 5481 5479 5478 5477 5475 5473 5471 5469 5467 5465 5464 5462 5460 5458 5456 5455 5454 5452 5450 5448 5446 5444 5443 5441 5440
5567 5565 5563 5561 5558 5556 5554 5552 5550 5547 5546 5543 5541 5539 5536 5535 5533 5531 5529 5526 5524 5522 5519 5517 5514 5512 5510 5507 5506 5503 5501 5500 5497 5496 5494 5493 5492 5490 5489 5487 5485 5483 5482 5480 5478 5476 5475 5473 5472 5470 5468 5466 5464 5462 5460 5458 5456 5455 5453 5451 5450 5448 5447 5445 5443 5441 5439 5438 5436
5565 5562 5560 5558 5555 5553 5551 5549 5547 5544 5542 5540 5538 5536 5533 5532 5529 5527 5525 5523 5521 5519 5516 5514 5512 5509 5507 5505 5502 5500 5499 5496 5495 5493 5492 5491 5489 5487 5486 5484 5482 5481 5479 5477 5475 5473 5472 5470 5468 5467 5465 5463 5461 5459 5457 5455 5453 5451 5450 5449 5447 5445 5443 5441 5440 5437 5436 5434 5432
5562 5560 5557 5555 5552 5550 5549 5546 5544 5542 5539 5537 5534 5533 5530 5528 5526 5524 5522 5520 5518 5515 5512 5510 5508 5505 5504 5501 5499 5498 5496 5494 5492 5490 5489 5488 5487 5485 5483 5481 5479 5478 5476 5473 5472 5470 5468 5467 5465 5463 5461 5459 5457 5456 5453 5451 5449 5448 5446 5445 5443 5441 5440 5438 5436 5434 5432 5430 5429
5559 5557 5554 5552 5550 5548 5546 5543 5541 5539 5536 5534 5532 5529 5527 5524 5522 5520 5518 5516 5514 5512 5509 5506 5504 5502 5500 5499 5496 5494 5493 5491 5489 5488 5486 5485 5483 5482 5480 5478 5476 5474 5472 5470 5469 5467 5465 5464 5462 5460 5457 5456 5454 5452 5450 5448 5446 5444 5443 5441 5439 5437 5436 5434 5432 5430 5428 5427 5425
5556 5554 5552 5550 5548 5545 5543 5540 5538 5536 5533 5531 5529 5526 5524 5521 5519 5517 5515 5512 5510 5507 5505 5503 5501 5499 5497 5495 5493 5492 5489 5488 5487 5485 5484 5482 5480 5479 5477 5474 5473 5471 5469 5467 5465 5463 5462 5460 5458 5456 5454 5452 5450 5448 5446 5444 5442 5440 5438 5437 5435 5433 5432 5430 5428 5427 5425 5423 5422
5554 5551 5549 5547 5545 5543 5540 5538 5535 5532 5530 5528 5525 5523 5520 5518 5515 5513 5511 5509 5507 5504 5502 5499 5498 5496 5494 5492 5490 5489 5487 5485 5484 5483 5481 5480 5477 5476 5474 5472 5470 5468 5466 5464 5462 5460 5459 5457 5454 5452 5450 5448 5446 5444 5443 5440 5439 5437 5435 5434 5432 5430 5428 5426 5425 5423 5422 5420 5418
5551 5549 5546 5545 5542 5540 5538 5535 5532 5529 5527 5524 5521 5519 5517 5514 5512 5510 5508 5506 5504 5501 5499 5497 5495 5493 5491 5490 5488 5487 5485 5483 5482 5481 5479 5477 5475 5472 5471 5469 5467 5465 5463 5461 5459 5457 5456 5453 5451 5449 5447 5444 5442 5441 5439 5437 5436 5434 5432 5430 5429 5427 5425 5423 5421 5420 5418 5416 5414
5549 5547 5544 5542 5540 5537 5535 5532 5529 5526 5523 5521 5518 5516 5513 5511 5509 5507 5505 5502 5501 5499 5497 5494 5492 5491 5489 5488 5486 5484 5483 5481 5479 5478 5475 5473 5471 5469 5468 5466 5464 5462 5459 5457 5456 5454 5452 5450 5448 5446 5443 5441 5439 5437 5436 5434 5432 5431 5429 5427 5425 5424 5422 5420 5418 5416 5414 5412 5410
5547 5544 5542 5540 5537 5534 5531 5529 5526 5523 5520 5517 5515 5513 5510 5508 5506 5504 5502 5500 5498 5496 5494 5493 5490 5489 5487 5485 5484 5482 5480 5479 5477 5474 5472 5470 5468 5466 5464 5462 5460 5458 5456 5454 5452 5450 5449 5446 5444 5442 5440 5438 5436 5435 5433 5431 5429 5428 5426 5425 5423 5421 5419 5417 5415 5413 5411 5408 5407
5545 5542 5539 5537 5534 5531 5528 5525 5522 5519 5517 5514 5511 5509 5507 5505 5503 5501 5499 5498 5496 5494 5492 5490 5489 5487 5485 5483 5481 5479 5477 5475 5474 5471 5469 5467 5465 5463 5461 5459 5457 5455 5453 5451 5449 5447 5445 5444 5441 5439 5436 5435 5433 5432 5430 5429 5427 5425 5424 5422 5420 5418 5416 5414 5412 5410 5407 5405 5403
5542 5539 5537 5533 5530 5527 5524 5521 5518 5516 5513 5511 5509 5506 5504 5502 5500 5499 5497 5495 5493 5491 5489 5488 5487 5485 5483 5481 5480 5477 5474 5472 5470 5468 5466 5464 5462 5460 5458 5456 5454 5452 5450 5448 5446 5444 5442 5440 5438 5435 5434 5431 5430 5429 5427 5426 5424 5423 5421 5420 5418 5416 5413 5411 5409 5407 5404 5402 5400
5539 5535 5533 5529 5526 5523 5521 5518 5515 5512 5510 5508 5505 5503 5501 5500 5498 5496 5494 5492 5491 5489 5487 5486 5484 5483 5481 5479 5476 5474 5471 5469 5466 5464 5462 5460 5459 5457 5455 5452 5450 5448 5447 5444 5443 5441 5438 5436 5434 5432 5430 5429 5427 5426 5424 5423 5422 5420 5419 5417 5416 5413 5411 5408 5406 5403 5401 5398 5396
5535 5531 5528 5525 5522 5520 5517 5514 5512 5509 5507 5505 5503 5501 5499 5497 5495 5493 5491 5489 5488 5486 5485 5483 5482 5479 5477 5475 5473 5470 5468 5466 5464 5462 5460 5457 5456 5454 5451 5449 5447 5445 5443 5442 5439 5438 5435 5433 5432 5430 5428 5427 5426 5424 5423 5421 5420 5418 5416 5415 5413 5411 5408 5405 5403 5400 5397 5394 5392
5531 5527 5524 5521 5519 5516 5514 5512 5509 5507 5505 5503 5501 5498 5496 5495 5493 5491 5488 5487 5485 5483 5482 5480 5478 5476 5474 5471 5469 5467 5464 5462 5460 5459 5456 5455 5453 5450 5448 5446 5444 5442 5440 5438 5437 5435 5433 5432 5431 5429 5427 5425 5424 5422 5421 5419 5417 5415 5414 5411 5410 5407 5405 5403 5400 5397 5393 5391 5388
5527 5524 5521 5519 5516 5514 5511 5509 5507 5505 5502 5500 5498 5496 5494 5492 5490 5488 5486 5484 5483 5481 5479 5477 5475 5473 5471 5468 5466 5463 5461 5459 5457 5456 5454 5451 5449 5447 5445 5443 5441 5438 5437 5435 5434 5432 5431 5429 5429 5427 5425 5423 5422 5421 5419 5417 5415 5413 5411 5408 5406 5404 5401 5399 5397 5393 5390 5387 5384
5524 5521 5518 5515 5513 5511 5509 5506 5504 5501 5500 5498 5495 5493 5491 5489 5487 5485 5483 5482 5480 5478 5476 5474 5472 5470 5468 5465 5463 5461 5458 5456 5454 5452 5450 5448 5446 5444 5442 5440 5438 5436 5434 5432 5431 5430 5428 5427 5426 5424 5422 5421 5419 5418 5417 5415 5413 5410 5407 5405 5402 5399 5397 5394 5392 5390 5387 5383 5380
5521 5518 5515 5513 5510 5508 5505 5503 5501 5499 5497 5495 5493 5490 5488 5486 5483 5482 5480 5478 5477 5475 5473 5471 5469 5467 5464 5462 5459 5457 5456 5453 5451 5449 5447 5445 5442 5440 5438 5436 5435 5432 5431 5429 5428 5427 5426 5424 5423 5421 5419 5417 5416 5415 5413 5411 5409 5406 5404 5401 5398 5395 5393 5390 5387 5385 5382 5380 5377
5518 5516 5513 5510 5507 5505 5502 5500 5498 5496 5494 5492 5489 5487 5485 5483 5481 5479 5478 5476 5474 5472 5470 5469 5466 5463 5460 5459 5457 5454 5452 5449 5447 5445 5443 5441 5438 5437 5435 5434 5432 5430 5428 5427 5426 5424 5423 5421 5419 5418 5416 5414 5413 5411 5410 5408 5406 5403 5400 5398 5394 5391 5388 5385 5382 5380 5378 5374 5372
5516 5513 5510 5507 5505 5502 5500 5498 5496 5493 5491 5489 5486 5484 5482 5480 5479 5477 5475 5473 5471 5470 5468 5465 5462 5460 5457 5456 5453 5451 5448 5447 5445 5442 5439 5437 5436 5434 5432 5431 5429 5427 5426 5424 5422 5421 5420 5418 5416 5414 5413 5411 5409 5408 5407 5405 5402 5399 5397 5393 5391 5387 5384 5381 5378 5375 5373 5369 5367
5512 5510 5507 5505 5502 5499 5497 5495 5493 5490 5488 5486 5483 5481 5480 5477 5476 5474 5472 5471 5469 5467 5464 5461 5459 5457 5454 5452 5450 5447 5445 5443 5441 5438 5436 5434 5433 5432 5430 5429 5426 5424 5422 5421 5419 5418 5416 5414 5413 5411 5409 5408 5406 5404 5403 5400 5398 5395 5393 5390 5387 5383 5379 5376 5373 5370 5367 5364 5362
5509 5506 5504 5501 5499 5496 5494 5491 5489 5486 5484 5483 5480 5479 5477 5475 5473 5472 5469 5467 5465 5462 5460 5457 5455 5453 5450 5448 5446 5444 5442 5440 5438 5436 5434 5432 5431 5429 5428 5426 5423 5421 5419 5418 5415 5414 5412 5411 5410 5408 5406 5404 5402 5401 5399 5396 5394 5391 5388 5385 5382 5379 5375 5372 5368 5366 5362 5359 5356
5505 5503 5500 5498 5495 5493 5490 5488 5486 5483 5481 5479 5477 5475 5474 5472 5470 5467 5465 5463 5461 5459 5456 5454 5452 5449 5448 5445 5443 5441 5439 5437 5436 5434 5432 5430 5428 5426 5425 5423 5421 5418 5416 5414 5413 5411 5410 5408 5406 5404 5402 5400 5398 5397 5395 5392 5390 5387 5384 5381 5378 5374 5371 5367 5364 5361 5357 5354 5350
5502 5500 5497 5494 5492 5489 5487 5485 5482 5480 5478 5476 5475 5473 5471 5468 5466 5464 5462 5460 5457 5455 5453 5451 5449 5447 5445 5443 5440 5438 5437 5435 5433 5431 5429 5427 5425 5423 5421 5419 5418 5415 5413 5411 5409 5408 5406 5404 5403 5400 5398 5397 5395 5393 5391 5388 5385 5383 5380 5377 5374 5370 5367 5363 5359 5356 5352 5349 5346
5499 5496 5493 5491 5489 5486 5483 5481 5480 5477 5476 5474 5472 5469 5467 5465 5463 5461 5459 5456 5454 5452 5449 5447 5445 5443 5441 5439 5437 5436 5434 5432 5430 5428 5426 5423 5421 5419 5418 5417 5415 5413 5410 5407 5405 5404 5402 5400 5398 5396 5394 5392 5391 5389 5386 5384 5381 5378 5376 5373 5370 5367 5363 5359 5355 5351 5347 5344 5340
5496 5493 5491 5488 5485 5483 5481 5478 5477 5474 5472 5470 5468 5466 5464 5462 5459 5457 5456 5454 5451 5448 5446 5444 5442 5440 5438 5436 5435 5433 5431 5429 5427 5425 5423 5421 5419 5416 5415 5414 5412 5410 5406 5403 5401 5399 5398 5396 5394 5392 5390 5388 5386 5384 5382 5379 5377 5375 5372 5370 5366 5363 5359 5355 5351 5347 5343 5339 5335
5493 5491 5488 5485 5483 5480 5479 5475 5474 5471 5469 5467 5465 5463 5461 5458 5456 5454 5452 5450 5447 5445 5443 5442 5440 5438 5435 5434 5432 5431 5429 5427 5424 5422 5420 5418 5415 5413 5412 5411 5409 5406 5403 5400 5397 5395 5393 5392 5390 5388 5385 5383 5382 5380 5377 5375 5373 5370 5368 5365 5363 5359 5355 5351 5348 5343 5339 5334 5330
5490 5488 5485 5483 5480 5478 5475 5473 5470 5468 5467 5464 5462 5460 5458 5455 5453 5451 5448 5447 5445 5443 5441 5439 5437 5435 5434 5432 5430 5428 5426 5424 5421 5418 5416 5414 5412 5410 5408 5406 5405 5403 5400 5397 5393 5391 5390 5387 5385 5383 5381 5379 5377 5375 5374 5371 5369 5366 5364 5362 5359 5355 5351 5347 5344 5340 5336 5331 5326
5487 5484 5482 5480 5477 5475 5472 5469 5468 5465 5464 5461 5459 5457 5454 5452 5450 5449 5446 5445 5443 5441 5438 5437 5435 5434 5432 5430 5428 5425 5423 5420 5418 5415 5413 5411 5409 5406 5404 5403 5401 5400 5397 5393 5390 5387 5386 5384 5382 5379 5376 5374 5372 5370 5368 5366 5364 5362 5359 5357 5355 5351 5348 5343 5339 5336 5332 5327 5322
5483 5481 5478 5476 5474 5471 5469 5466 5465 5463 5460 5458 5456 5454 5452 5449 5448 5446 5444 5442 5439 5438 5436 5434 5433 5431 5429 5427 5424 5422 5420 5418 5415 5412 5410 5407 5405 5403 5401 5399 5398 5396 5394 5390 5388 5384 5382 5380 5377 5375 5372 5369 5367 5365 5364 5361 5359 5357 5354 5352 5350 5347 5344 5340 5336 5331 5328 5324 5319
5479 5478 5475 5473 5471 5468 5466 5464 5461 5460 5457 5455 5453 5452 5450 5447 5445 5443 5441 5439 5437 5435 5433 5431 5430 5428 5425 5423 5421 5419 5417 5415 5413 5410 5407 5404 5401 5399 5397 5395 5393 5392 5389 5387 5383 5380 5378 5375 5373 5370 5368 5365 5363 5360 5358 5356 5354 5352 5350 5347 5344 5342 5339 5336 5332 5327 5323 5319 5315